Location: S�tio Afonso Gruber
(26.1760°S, 49.5250°W)
Time: 14:53:55
(UTC+00:00)

Cosmos 1470 Rocket - Pass Details

Date: 07 June 2020
Orbit: 605 x 633 km, 82.5° (Epoch: 07 July)

Event Time Altitude Azimuth Distance (km) Brightness Sun altitude
Exits shadow 08:15:16 67° 313° (NW) 664 3.5 -23.0°
Drops below altitude 10° 08:19:11 10° 358° (N) 1,948 6.3 -22.2°
Sets 08:21:23 0° 360° (N) 2,843 7.2 -21.7°
